Other Public Products
Issued by NWS Charleston, SC

Current Version | Previous Version | Graphics & Text | Print | Product List | Glossary On
Versions: 1 2 3 4 5 6 7 8 9 10 11 12 13 14 15 16 17 18 19 20 21 22 23 24 25 26 27 28 29 30 31 32 33 34 35 36 37 38 39 40 41 42 43 44 45 46 47 48 49 50
016
FPUS82 KCHS 250412
OPUCHS

TEST...KCHS/KSAV Gateway Observations...TEST
National Weather Service Charleston SC
1200 AM EDT SAT MAR 25 2017

NOTE: "fair" indicates few or no clouds below 12,000 feet with no
significant weather and/or obstructions to visibility.

SCZ050-WAZ558-NCZ071-TXZ119-213-PAZ071-DCZ001-FLZ074-172-MI076-
NYZ176-178-MAZ016-IL014-TNZ027-NJZ106-GAZ044-MD014-250500-

...Gateway Observations for Charleston International...

CITY           SKY/WX    TMP DP  RH WIND       PRES   REMARKS
Chas Airport   CLOUDY    60  54  80 SE3       30.37F
Seattle        CLOUDY    47  43  86 S10       29.97R
Charlotte      MOCLDY    58  46  64 S6        30.34S
Dallas DFW     PTCLDY    73  38  27 W17       29.83R
Dallas Love    PTCLDY    73  38  27 W13G18    29.84R
Philladelphia  MOCLDY    45  34  65 S3        30.18S
Wash National  CLEAR     57  48  72 S10       30.19S
Baltimore      MOCLDY    60  46  59 SW9       30.16S
Miami          LGT RAIN  72  63  73 E14       30.23S
Detroit        CLOUDY    48  40  73 NE12      30.10R
Newark         MOCLDY    52  32  46 SW7       30.13F
Laguardia      CLOUDY    55  32  41 SW7       30.13S
J F K          CLOUDY    44  39  82 S8        30.15F
Boston Logan   CLOUDY    46  32  58 SW8       30.08S
Ft. Lauderdale PTCLDY    73  61  65 E17       30.22F
Chicago O`Hare CLOUDY    43  36  76 N15       30.07S
Chicago Midway CLOUDY    42  39  89 N20G25    30.08R
Houston Bush   TSTM      67  61  81 N10G51    29.95S VSB 1/2
Houston Hobby  TSTM      73  69  87 S18G28    29.94R
Nashville      MOCLDY    66  52  60 SE9       30.15F
Atlanta        MOCLDY    66  49  54 SE8       30.28F

$$

GAZ044-118-TXZ119-213-NCZ071-DCZ001-MDZ014-506-PAZ021-071-NJZ106-
NYZ176-178-MAZ106-OHZ011-021-055-MIZ076-KYZ091-ILZ014-INZ047-
MNZ060-ONZ431-250500-

...Gateway Observations for Savannah International...

CITY           SKY/WX    TMP DP  RH WIND       PRES   REMARKS
Savannah Arpt  PTCLDY    62  55  77 CALM      30.36F
Atlanta        MOCLDY    66  49  54 SE8       30.28F
Charlotte      MOCLDY    58  46  64 S6        30.34S
Dallas DFW     PTCLDY    73  38  27 W17       29.83R
Houston Bush   TSTM      67  61  81 N10G51    29.95S VSB 1/2
Wash National  CLEAR     57  48  72 S10       30.19S
Wash Dulles    CLOUDY    60  45  57 S10       30.18S
Baltimore      MOCLDY    60  46  59 SW9       30.16S
Philadelphia   MOCLDY    45  34  65 S3        30.18S
Newark         MOCLDY    52  32  46 SW7       30.13F
Laguardia      CLOUDY    55  32  41 SW7       30.13S
J F K          CLOUDY    44  39  82 S8        30.15F
Boston         CLOUDY    46  32  58 SW8       30.08S
Pittsburg      CLOUDY    66  52  60 SW7       30.11S
Akron          PTCLDY    62  51  67 SW9       30.10S
Cleveland      CLOUDY    67  51  56 S13       30.07F
Cincinnati     CLOUDY    65  52  62 SW8       30.14S
Columbus       CLOUDY    60  52  73 SW6       30.13S
Detroit        CLOUDY    48  40  73 NE12      30.10R
Chicago O`Hare CLOUDY    43  36  76 N15       30.07S
Minneapolis    CLOUDY    40  33  76 E13G22    30.17S WCI  32
Indianapolis   CLOUDY    65  52  62 S13       30.07F
Toronto Canada LGT RAIN  39  36  87 NE7       30.12  WCI  34

$$




USA.gov is the U.S. government's official web portal to all federal, state and local government web resources and services.